Wisconsin Rapids, WI

7:54 AM CDT on August 18, 2017 (GMT -0500)
Alexander Field South Wood County

Weather History for KISW - November, 2013

Change the Weather History Date:

Wednesday, November 27, 2013

  Actual Average Record
Temperature  
Mean Temperature 18 °F -  
Max Temperature 26 °F 34 °F 64 °F (1998)
Min Temperature 9 °F 18 °F -7 °F (1996)
Degree Days  
Heating Degree Days 48    
Moisture  
Dew Point 9 °F    
Average Humidity 70    
Maximum Humidity 93    
Minimum Humidity 43    
Precipitation  
Precipitation 0.00 in - - ()
Sea Level Pressure  
Sea Level Pressure 30.27 in    
Wind  
Wind Speed 6 mph (North)    
Max Wind Speed 10 mph    
Max Gust Speed -    
Visibility 9 miles    
Events Snow    
Averages and records for this station are not official NWS values.
T = Trace of Precipitation, MM = Missing Value Source: NWS Daily Summary

Daily Weather History Graph

Daily Weather History Graph

Search for Another Location

Airport or City:

Trip Planner

Search our weather history database for the weather conditions in past years. The results will help you decide how hot, cold, wet, or windy it might be!

Date:

Astronomy

Nov. 27, 2013 Rise Set
Actual Time 7:10 AM CST 4:23 PM CST
Civil Twilight 6:38 AM CST 4:55 PM CST
Nautical Twilight 6:02 AM CST 5:31 PM CST
Astronomical Twilight 5:27 AM CST 6:06 PM CST
Moon 1:00 AM CST (11/27) 1:11 PM CST (11/27)
Length of Visible Light 10h 16m
Length of Day
9h 12m
Waning Crescent, 31% of the Moon is Illuminated
Nov 27
Waning Crescent
Dec 2
New
Dec 9
First Quarter
Dec 17
Full
Dec 25
Last Quarter

Hourly Weather History & Observations

Time (CST) Temp. Windchill Dew Point Humidity Pressure Visibility Wind Dir Wind Speed Gust Speed Precip Events Conditions
12:54 AM 10.9 °F -0.8 °F 3.0 °F 70% 30.30 in 10.0 mi NNW 8.1 mph - N/A   Clear
1:54 AM 10.0 °F -0.9 °F 3.9 °F 76% 30.30 in 10.0 mi NNW 6.9 mph - N/A   Clear
2:54 AM 10.0 °F -1.9 °F 3.9 °F 76% 30.30 in 10.0 mi NW 8.1 mph - N/A   Clear
3:54 AM 9.0 °F -0.9 °F 3.9 °F 80% 30.30 in 10.0 mi NW 5.8 mph - N/A   Clear
4:54 AM 9.0 °F -0.9 °F 5.0 °F 84% 30.31 in 10.0 mi NW 5.8 mph - N/A   Clear
5:54 AM 9.0 °F -3.2 °F 5.0 °F 84% 30.32 in 10.0 mi NNW 8.1 mph - N/A   Clear
6:54 AM 10.0 °F -0.9 °F 6.1 °F 84% 30.33 in 10.0 mi NW 6.9 mph - N/A   Clear
7:54 AM 10.9 °F 2.9 °F 7.0 °F 84% 30.34 in 10.0 mi NW 4.6 mph - N/A   Clear
8:54 AM 16.0 °F 5.3 °F 10.0 °F 77% 30.34 in 10.0 mi NW 8.1 mph - N/A   Clear
9:54 AM 19.9 °F 11.1 °F 10.9 °F 68% 30.34 in 10.0 mi North 6.9 mph - N/A   Clear
10:54 AM 21.9 °F 11.7 °F 10.9 °F 63% 30.32 in 10.0 mi NNW 9.2 mph - N/A   Clear
11:54 AM 25.0 °F 14.8 °F 8.1 °F 49% 30.28 in 10.0 mi North 10.4 mph - N/A   Clear
12:54 PM 25.0 °F 18.1 °F 6.1 °F 45% 30.26 in 10.0 mi North 5.8 mph - N/A   Clear
1:54 PM 26.1 °F 20.5 °F 6.1 °F 43% 30.24 in 10.0 mi Variable 4.6 mph - N/A   Clear
2:54 PM 25.0 °F 17.1 °F 6.1 °F 45% 30.24 in 10.0 mi North 6.9 mph - N/A   Clear
3:54 PM 24.1 °F 18.2 °F 8.1 °F 51% 30.24 in 10.0 mi North 4.6 mph - N/A   Mostly Cloudy
4:54 PM 23.0 °F 18.4 °F 8.1 °F 53% 30.25 in 10.0 mi NNW 3.5 mph - N/A   Overcast
5:54 PM 23.0 °F - 9.0 °F 55% 30.24 in 10.0 mi Calm Calm - N/A   Overcast
6:54 PM 21.9 °F - 10.0 °F 60% 30.22 in 10.0 mi Calm Calm - N/A   Overcast
7:54 PM 21.9 °F - 10.0 °F 60% 30.23 in 10.0 mi Calm Calm - N/A   Overcast
8:54 PM 21.0 °F 14.6 °F 12.9 °F 71% 30.24 in 6.0 mi East 4.6 mph - 0.00 in Snow Light Snow
9:54 PM 19.9 °F 12.1 °F 16.0 °F 85% 30.23 in 8.0 mi East 5.8 mph - 0.00 in Snow Light Snow
10:54 PM 19.9 °F 13.4 °F 16.0 °F 85% 30.23 in 3.0 mi East 4.6 mph - 0.00 in Snow Light Snow
11:16 PM 19.4 °F 12.8 °F 17.6 °F 93% 30.17 in 3.0 mi East 4.6 mph - 0.00 in Snow Light Snow
11:26 PM 19.4 °F 11.5 °F 17.6 °F 93% 30.16 in 4.0 mi East 5.8 mph - 0.00 in Snow Light Snow
11:54 PM 19.9 °F 11.1 °F 17.1 °F 89% 30.21 in 9.0 mi East 6.9 mph - 0.00 in   Overcast